NOAA-19
1 33591U 09005A 10007.74957038 .00000405 00000-0 24891-3 0 3930
2 33591 098.7724 313.4252 0014564 026.9140 333.2739 14.11016803 47288
HUBBLE
1 20580U 90037B 10006.86498872 .00000329 00000-0 12405-4 0 4998
2 20580 028.4697 212.9301 0003271 285.0678 074.9550 15.00875268880480
ISS
1 25544U 98067A 10008.06761631 .00010902 00000-0 68838-4 0 3284
2 25544 051.6470 333.3865 0007755 157.1785 297.1097 15.77228506638245
CO-58
1 28895U 05043F 10006.22645861 .00000090 00000-0 28329-4 0 04818
2 28895 098.0375 255.8548 0018878 073.7724 286.5524 14.59831647223350
FALCON
1 30776U 07006E 10006.92143374 .00000366 00000-0 29434-4 0 07513
2 30776 035.4346 303.1796 0001261 282.9268 077.1313 15.03415426155774
MAST
1 31126U 07012K 10006.66135283 .00000009 00000-0 12603-4 0 07717
2 31126 097.9602 056.8371 0094905 008.7510 351.5310 14.53544007144590
CAPE1
1 31130U 07012P 10006.62470748 -.00000110 00000-0 -14547-4 0 07866
2 31130 097.9624 054.5409 0102829 015.8623 344.5676 14.52120823144216
COMPASS
1 32787U 08021E 10006.17296983 .00000308 00000-0 45716-4 0 05646
2 32787 097.9152 073.0063 0016918 092.8835 267.4301 14.81729877091503
AAUSAT2
1 32788U 08021F 10006.59623676 -.00000140 00000-0 -10921-4 0 05563
2 32788 097.9158 073.5179 0016633 092.0373 268.2711 14.81859001091570
DO-64
1 32789U 08021G 10006.61565757 .00000668 00000-0 90875-4 0 05730
2 32789 097.9212 073.8501 0016700 090.9979 269.3175 14.81914074091576
CO-66
1 32791U 08021J 10006.17277400 .00000258 00000-0 39557-4 0 05532
2 32791 097.9175 073.0352 0017305 091.2633 269.0535 14.81540378091463
RS-30
1 32953U 08025A 10006.82843944 .00000010 00000-0 00000-0 0 04958
2 32953 082.5022 130.0164 0019788 095.3340 264.9997 12.43003136073699
TACSAT-3
1 35001U 09028A 10007.70587215 .00003274 00000-0 85375-4 0 1867
2 35001 040.4551 096.7872 0023560 247.0458 112.7870 15.39931762 35870
PHARMSAT
1 35002U 09028B 10007.65807274 .00002824 00000-0 72624-4 0 1786
2 35002 040.4685 095.7670 0026784 250.1911 109.6016 15.40626833 35873
HAWKSAT1
1 35003U 09028C 10007.60544554 .00005980 00000-0 14077-3 0 1852
2 35003 040.4618 094.2768 0025930 256.1979 103.5947 15.41996693 35897
CP6
1 35004U 09028D 10006.62197943 .00006707 00000-0 15603-3 0 01843
2 35004 040.4615 100.0304 0025191 249.4536 110.3575 15.42235317035736
AEROCUB3
1 35005U 09028E 10007.62214751 .00012294 00000-0 28059-3 0 1849
2 35005 040.4724 094.6729 0024638 252.9432 106.8685 15.42302527 35882
DRAGNSAT
1 35690U 09038B 10007.27582751 .00066361 12874-4 19694-3 0 1800
2 35690 051.6372 324.9957 0003061 053.0524 307.0746 15.92762059 25502
POLLUX
1 35693U 09038E 10007.24635725 .00053913 12233-4 17859-3 0 1742
2 35693 051.6386 326.3256 0000886 024.3350 335.7924 15.90870264 25454
CASTOR
1 35694U 09038F 10007.34505871 .00021167 00000-0 90724-4 0 1511
2 35694 051.6409 328.5701 0001592 299.7377 060.3488 15.85072754 25438
METEOR-M
1 35865U 09049A 10007.26457352 .00000176 00000-0 10000-3 0 967
2 35865 098.7835 062.0333 0003172 105.2948 254.8573 14.21828525 15859
RS-38
1 35869U 09049E 10007.60476772 .00000176 00000-0 10000-3 0 977
2 35869 098.7822 062.3882 0005389 105.9837 254.1905 14.21975483 15901
